Weather in Usmyn

Russia / Pskov Oblast     55°51′31″N   31°10′04″E
temp.,
°C
wind,
m/s
gust,
m/s
humid.,
%
clouds,
%
prec.,
mm/h
press.,
hPa
HPBL,
m
22 january, sat
sat2200:00−7nne2696100 0.5 997262
03:00−7nne389594 0.8 999333
06:00−12n279899 0.0 1002123
09:00−10nnw2896100 0.1 1004252
12:00−7n3893100 0.5 1006641
15:00−7n478899 0.7 1008625
18:00−9n389398 0.1 1012366
21:00−11n389598 0.1 1014265
23 january, sun
sun2300:00−11n389682 0.1 1016219
03:00−13n379768 0.1 1019148
06:00−12nne379687 0.1 1022196
09:00−15nne269874 0.1 1026113
12:00−10ene259265 0.0 1028167
15:00−7ne239178 0.0 1030247
18:00−14nne119973 0.0 10339
21:00−16e1110079 0.0 10359
24 january, mon
mon2400:00−17nne0010085 0.0 10389
03:00−18ese1110082 0.0 10389
06:00−19sse1110089 0.0 10399
09:00−20w0010093 0.0 10399
12:00−11sse129363 0.0 1039101
15:00−8ssw129121 0.0 1036176
18:00−15s219978 0.0 10369
21:00−17s2210092 0.0 103528
25 january, tue
tue2500:00−17s2610099 0.0 103375
03:00−16s299852 0.0 1031126
06:00−15s3109614 0.0 1029187
09:00−13s41291100 0.0 1026228
12:00−9ssw41186100 0.0 1024316
15:00−6ssw41094100 0.5 1021364
18:00−6ssw3896100 0.6 1019337
21:00−7ssw2597100 1.5 1019146
26 january, wed
wed2600:00−7wsw129894 0.5 101945
03:00−4n399793 0.9 1019380
06:00−4n4892100 0.2 1020619
09:00−6nnw2796100 0.3 1020181
12:00−5n488999 0.1 1021596
15:00−5n479097 0.2 1021584
18:00−11nnw259878 0.0 102297
21:00−16n1110092 0.1 102217